Location: ???????
(55.4362°N, 38.1183°E)
Time: 18:29:27
(UTC+00:00)

X-37B - Pass Details

Date: 17 June 2021
Orbit: 383 x 392 km, 45.0° (Epoch: 01 July)

Event Time Altitude Azimuth Distance (km) Brightness Sun altitude
Exits shadow 23:16:00 11° 198° (SSW) 1,345 2.6 -7.9°
Maximum altitude 23:17:11 13° 175° (S) 1,249 2.6 -7.8°
Drops below altitude 10° 23:18:41 10° 147° (SSE) 1,407 3.1 -7.7°
Sets 23:21:36 0° 117° (ESE) 2,264 4.5 -7.6°
